Wrangell, AK

8:49 PM AKDT on April 22, 2018 (GMT -0800)
Wrangell

Weather History for PAWG - May, 2014

Change the Weather History Date:

Tuesday, May 6, 2014

  Actual Average Record
Temperature  
Mean Temperature 49 °F -  
Max Temperature 59 °F 54 °F 71 °F (1981)
Min Temperature 39 °F 38 °F 29 °F (1969)
Degree Days  
Heating Degree Days 16    
Moisture  
Dew Point 38 °F    
Average Humidity 63    
Maximum Humidity 87    
Minimum Humidity 44    
Precipitation  
Precipitation 0.00 in - - ()
Sea Level Pressure  
Sea Level Pressure 30.06 in    
Wind  
Wind Speed 6 mph (WNW)    
Max Wind Speed 15 mph    
Max Gust Speed -    
Visibility 10 miles    
Events      
Averages and records for this station are not official NWS values.
T = Trace of Precipitation, MM = Missing Value Source: NWS Daily Summary

Daily Weather History Graph

Daily Weather History Graph

Search for Another Location

Airport or City:

Astronomy

May. 06, 2014 Rise Set
Actual Time 4:51 AM AKDT 8:41 PM AKDT
Civil Twilight 4:04 AM AKDT 9:29 PM AKDT
Nautical Twilight 2:56 AM AKDT 10:38 PM AKDT
Astronomical Twilight 1:18 AM AKDT 12:13 AM AKDT
Moon 11:31 AM AKDT (5/6) 1:50 AM AKDT (5/6)
Length of Visible Light 17h 24m
Length of Day
15h 49m
Waxing Crescent, 47% of the Moon is Illuminated
May 6
Waxing Crescent
May 6
First Quarter
May 14
Full
May 21
Last Quarter
May 28
New

Hourly Weather History & Observations

Time (AKDT) Temp. Windchill Dew Point Humidity Pressure Visibility Wind Dir Wind Speed Gust Speed Precip Events Conditions
3:56 AM 42.8 °F 40.1 °F 35.6 °F 76% 30.07 in 10.0 mi ESE 4.6 mph - N/A   Clear
4:16 AM 42.8 °F 40.1 °F 35.6 °F 76% 30.08 in 10.0 mi SE 4.6 mph - N/A   Clear
4:36 AM 41.0 °F 38.0 °F 35.6 °F 81% 30.09 in 10.0 mi SE 4.6 mph - N/A   Clear
4:56 AM 39.2 °F 37.0 °F 33.8 °F 81% 30.09 in 10.0 mi South 3.5 mph - N/A   Clear
5:16 AM 41.0 °F 39.0 °F 35.6 °F 81% 30.09 in 10.0 mi SE 3.5 mph - N/A   Clear
5:56 AM 39.2 °F 37.0 °F 35.6 °F 87% 30.10 in 10.0 mi SSE 3.5 mph - N/A   Clear
6:16 AM 42.8 °F 41.1 °F 37.4 °F 81% 30.10 in 10.0 mi SE 3.5 mph - N/A   Clear
6:36 AM 42.8 °F 40.1 °F 37.4 °F 81% 30.10 in 10.0 mi ESE 4.6 mph - N/A   Clear
6:56 AM 42.8 °F - 37.4 °F 81% 30.10 in 10.0 mi Calm Calm - N/A   Clear
7:16 AM 44.6 °F 42.2 °F 37.4 °F 76% 30.10 in 10.0 mi ESE 4.6 mph - N/A   Clear
7:36 AM 44.6 °F 43.1 °F 37.4 °F 76% 30.10 in 10.0 mi SE 3.5 mph - N/A   Clear
7:56 AM 44.6 °F - 37.4 °F 76% 30.11 in 10.0 mi Calm Calm - N/A   Partly Cloudy
8:16 AM 44.6 °F 43.1 °F 39.2 °F 81% 30.10 in 10.0 mi NNW 3.5 mph - N/A   Partly Cloudy
8:36 AM 44.6 °F 41.4 °F 39.2 °F 81% 30.11 in 10.0 mi NNW 5.8 mph - N/A   Partly Cloudy
8:56 AM 46.4 °F 42.9 °F 39.2 °F 76% 30.10 in 10.0 mi NNW 6.9 mph - N/A   Clear
9:16 AM 46.4 °F 42.9 °F 39.2 °F 76% 30.10 in 10.0 mi NNW 6.9 mph - N/A   Clear
9:36 AM 46.4 °F 42.9 °F 41.0 °F 81% 30.09 in 10.0 mi NW 6.9 mph - N/A   Clear
9:56 AM 48.2 °F - 41.0 °F 76% 30.09 in 10.0 mi NW 5.8 mph - N/A   Clear
10:16 AM 50.0 °F - 39.2 °F 66% 30.09 in 10.0 mi WNW 6.9 mph - N/A   Clear
10:36 AM 50.0 °F - 39.2 °F 66% 30.09 in 10.0 mi NNW 8.1 mph - N/A   Clear
10:56 AM 51.8 °F - 39.2 °F 62% 30.09 in 10.0 mi WNW 6.9 mph - N/A   Clear
11:16 AM 51.8 °F - 41.0 °F 67% 30.09 in 10.0 mi WNW 6.9 mph - N/A   Clear
11:36 AM 50.0 °F - 41.0 °F 71% 30.09 in 10.0 mi NNW 8.1 mph - N/A   Clear
11:56 AM 51.8 °F - 42.8 °F 71% 30.08 in 10.0 mi NNW 8.1 mph - N/A   Clear
12:16 PM 51.8 °F - 42.8 °F 71% 30.08 in 10.0 mi NNW 8.1 mph - N/A   Clear
12:36 PM 55.4 °F - 42.8 °F 63% 30.07 in 10.0 mi NW 9.2 mph - N/A   Clear
12:56 PM 53.6 °F - 42.8 °F 67% 30.07 in 10.0 mi NNW 8.1 mph - N/A   Clear
1:16 PM 57.2 °F - 42.8 °F 59% 30.07 in 10.0 mi NW 8.1 mph - N/A   Clear
1:36 PM 57.2 °F - 42.8 °F 59% 30.06 in 10.0 mi NW 5.8 mph - N/A   Clear
1:56 PM 57.2 °F - 39.2 °F 51% 30.06 in 10.0 mi West 4.6 mph - N/A   Clear
2:16 PM 57.2 °F - 39.2 °F 51% 30.05 in 10.0 mi West 8.1 mph - N/A   Clear
2:36 PM 57.2 °F - 39.2 °F 51% 30.05 in 10.0 mi SW 6.9 mph - N/A   Clear
2:56 PM 59.0 °F - 39.2 °F 48% 30.05 in 10.0 mi WNW 8.1 mph - N/A   Clear
3:16 PM 57.2 °F - 39.2 °F 51% 30.05 in 10.0 mi West 8.1 mph - N/A   Clear
3:36 PM 59.0 °F - 39.2 °F 48% 30.04 in 10.0 mi West 8.1 mph - N/A   Clear
3:56 PM 57.2 °F - 39.2 °F 51% 30.04 in 10.0 mi WSW 10.4 mph - N/A   Clear
4:16 PM 57.2 °F - 37.4 °F 48% 30.03 in 10.0 mi WSW 9.2 mph - N/A   Clear
4:36 PM 57.2 °F - 39.2 °F 51% 30.03 in 10.0 mi West 5.8 mph - N/A   Clear
4:56 PM 59.0 °F - 39.2 °F 48% 30.03 in 10.0 mi WNW 6.9 mph - N/A   Clear
5:16 PM 57.2 °F - 39.2 °F 51% 30.02 in 10.0 mi WNW 8.1 mph - N/A   Clear
5:36 PM 57.2 °F - 39.2 °F 51% 30.02 in 10.0 mi West 9.2 mph - N/A   Clear
5:56 PM 57.2 °F - 39.2 °F 51% 30.02 in 10.0 mi WNW 12.7 mph - N/A   Clear
6:16 PM 57.2 °F - 37.4 °F 48% 30.01 in 10.0 mi West 12.7 mph - N/A   Clear
6:36 PM 55.4 °F - 37.4 °F 51% 30.01 in 10.0 mi West 4.6 mph - N/A   Clear
6:56 PM 55.4 °F - 37.4 °F 51% 30.01 in 10.0 mi Calm Calm - N/A   Clear
7:16 PM 55.4 °F - 39.2 °F 54% 30.01 in 10.0 mi ESE 3.5 mph - N/A   Clear
7:36 PM 53.6 °F - 39.2 °F 58% 30.02 in 10.0 mi Calm Calm - N/A   Clear
7:56 PM 53.6 °F - 39.2 °F 58% 30.02 in 10.0 mi Calm Calm - N/A   Clear
8:16 PM 53.6 °F - 37.4 °F 54% 30.02 in 10.0 mi WNW 3.5 mph - N/A   Clear
8:36 PM 53.6 °F - 32.0 °F 44% 30.02 in 10.0 mi West 12.7 mph - N/A   Clear
8:56 PM 51.8 °F - 33.8 °F 50% 30.02 in 10.0 mi WNW 10.4 mph - N/A   Clear
9:16 PM 51.8 °F - 33.8 °F 50% 30.02 in 10.0 mi WNW 9.2 mph - N/A   Clear
9:36 PM 51.8 °F - 33.8 °F 50% 30.02 in 10.0 mi WNW 13.8 mph - N/A   Clear
9:56 PM 51.8 °F - 33.8 °F 50% 30.02 in 10.0 mi WNW 13.8 mph - N/A   Clear
10:16 PM 50.0 °F - 33.8 °F 54% 30.02 in 10.0 mi West 15.0 mph - N/A   Clear
10:36 PM 48.2 °F - 33.8 °F 58% 30.02 in 10.0 mi West 11.5 mph - N/A   Clear
10:56 PM 48.2 °F - 33.8 °F 58% 30.02 in 10.0 mi WNW 8.1 mph - N/A   Clear
11:16 PM 48.2 °F - 33.8 °F 58% 30.02 in 10.0 mi West 5.8 mph - N/A   Clear
11:36 PM 48.2 °F - 35.6 °F 62% 30.02 in 10.0 mi Calm Calm - N/A   Clear
11:56 PM 46.4 °F - 33.8 °F 62% 30.02 in 10.0 mi Calm Calm - N/A   Clear